Weather History for KGYY - January, 2014

Change the Weather History Date:

Friday, January 17, 2014

  Actual Average (KMDW) Record (KMDW)
Temperature  
Mean Temperature 19 °F 25 °F  
Max Temperature 23 °F 31 °F 58 °F (1952)
Min Temperature 15 °F 18 °F -17 °F (1982)
Degree Days  
Heating Degree Days 46 40  
Month to date heating degree days 679  
Since 1 July heating degree days 2930  
Cooling Degree Days 0 0  
Month to date cooling degree days 0  
Year to date cooling degree days 0  
Moisture  
Dew Point 10 °F    
Average Humidity 69    
Maximum Humidity 79    
Minimum Humidity 59    
Precipitation  
Precipitation 0.00 in 0.07 in 0.68 in (1988)
Month to date precipitation 1.24  
Year to date precipitation 1.24  
Sea Level Pressure  
Sea Level Pressure 29.87 in    
Wind  
Wind Speed 11 mph (West)    
Max Wind Speed 20 mph    
Max Gust Speed 25 mph    
Visibility 9 miles    
Events Snow    
T = Trace of Precipitation, MM = Missing Value Source: NWS Daily Summary

Daily Weather History Graph

Daily Weather History Graph

Search for Another Location

Airport or City:

Trip Planner

Search our weather history database for the weather conditions in past years. The results will help you decide how hot, cold, wet, or windy it might be!

Date:

Astronomy

Jan. 17, 2014 Rise Set
Actual Time 7:13 AM CST 4:46 PM CST
Civil Twilight 6:42 AM CST 5:17 PM CST
Nautical Twilight 6:08 AM CST 5:51 PM CST
Astronomical Twilight 5:35 AM CST 6:24 PM CST
Moon 6:35 PM CST (1/17) 7:39 AM CST (1/17)
Length of Visible Light 10h 34m
Length of Day
9h 33m
Full, 98% of the Moon is Illuminated
Jan 17
Full
Jan 23
Last Quarter
Jan 30
New
Feb 6
First Quarter
Feb 14
Full

Hourly Weather History & Observations

Time (CST) Temp. Windchill Dew Point Humidity Pressure Visibility Wind Dir Wind Speed Gust Speed Precip Events Conditions
12:15 AM 23.9 °F 12.9 °F 11.7 °F 60% 29.70 in 10.0 mi West 11.5 mph - N/A   Overcast
12:35 AM 23.9 °F 14.2 °F 11.5 °F 59% 29.71 in 10.0 mi West 9.2 mph - N/A   Overcast
12:55 AM 23.4 °F 11.6 °F 11.1 °F 60% 29.70 in 10.0 mi WNW 12.7 mph - N/A   Overcast
1:15 AM 23.0 °F 10.6 °F 11.5 °F 61% 29.72 in 10.0 mi West 13.8 mph - N/A   Overcast
1:35 AM 22.3 °F 10.8 °F 10.9 °F 62% 29.72 in 10.0 mi WNW 11.5 mph - N/A   Overcast
1:55 AM 21.9 °F 11.0 °F 10.6 °F 62% 29.73 in 10.0 mi West 10.4 mph - N/A   Overcast
2:15 AM 21.7 °F 11.5 °F 11.1 °F 64% 29.73 in 10.0 mi WNW 9.2 mph - N/A   Overcast
2:35 AM 21.6 °F 9.9 °F 11.3 °F 65% 29.74 in 10.0 mi West 11.5 mph - N/A   Overcast
2:55 AM 20.8 °F 7.9 °F 10.8 °F 65% 29.75 in 10.0 mi West 13.8 mph - N/A   Overcast
3:15 AM 20.3 °F 9.0 °F 10.9 °F 67% 29.75 in 10.0 mi West 10.4 mph - N/A Snow Light Snow
3:35 AM 20.1 °F 8.1 °F 11.3 °F 69% 29.75 in 10.0 mi West 11.5 mph 16.1 mph N/A Snow Light Snow
4:45 AM 19.4 °F 6.0 °F 10.4 °F 68% 29.78 in 10.0 mi WNW 13.8 mph - N/A Snow Light Snow
5:45 AM 17.6 °F 7.3 °F 10.4 °F 73% 29.80 in - West 8.1 mph 24.2 mph N/A Snow Light Snow
6:45 AM 17.6 °F 3.7 °F 8.6 °F 68% 29.82 in 10.0 mi West 13.8 mph - N/A Snow Light Snow
7:45 AM 15.8 °F 3.4 °F 6.8 °F 68% 29.83 in 10.0 mi West 10.4 mph - N/A   Overcast
8:45 AM 15.8 °F 3.4 °F 6.8 °F 68% 29.85 in 10.0 mi West 10.4 mph - N/A   Overcast
9:45 AM 15.8 °F 3.4 °F 6.8 °F 68% 29.87 in 15.0 mi West 10.4 mph - N/A   Overcast
10:45 AM 15.8 °F -1.1 °F 6.8 °F 68% 29.89 in 7.0 mi West 19.6 mph - N/A   Overcast
11:45 AM 15.8 °F 2.1 °F 5.0 °F 62% 29.88 in 15.0 mi WSW 12.7 mph - N/A   Overcast
12:45 PM 15.8 °F 2.1 °F 5.0 °F 62% 29.88 in 12.0 mi WSW 12.7 mph 25.3 mph N/A   Overcast
1:45 PM 15.8 °F 2.1 °F 5.0 °F 62% 29.89 in 12.0 mi WSW 12.7 mph 25.3 mph N/A   Overcast
2:45 PM 17.6 °F 4.3 °F 6.8 °F 63% 29.91 in - WSW 12.7 mph 25.3 mph N/A   Overcast
3:45 PM 17.6 °F 4.3 °F 6.8 °F 63% 29.91 in 12.0 mi WSW 12.7 mph 25.3 mph N/A   Overcast
4:45 PM 17.6 °F 5.7 °F 8.6 °F 68% 29.95 in 7.0 mi West 10.4 mph - N/A   Overcast
5:45 PM 17.6 °F 5.0 °F 10.4 °F 73% 29.96 in 7.0 mi West 11.5 mph - N/A Snow Light Snow
6:45 PM 17.6 °F 3.7 °F 12.2 °F 79% 29.97 in 4.0 mi WSW 13.8 mph - N/A Snow Light Snow
7:45 PM 17.6 °F 2.2 °F 10.4 °F 73% 29.97 in 10.0 mi West 17.3 mph - N/A Snow Light Snow
8:15 PM 17.4 °F 6.2 °F 10.6 °F 75% 29.98 in 7.0 mi WSW 9.2 mph - N/A Snow Light Snow
8:35 PM 17.4 °F 4.7 °F 10.6 °F 75% 29.98 in 5.0 mi WSW 11.5 mph - N/A Snow Light Snow
8:45 PM 17.6 °F 3.7 °F 10.4 °F 73% 29.97 in 7.0 mi West 13.8 mph - N/A Snow Light Snow
8:55 PM 17.6 °F 7.3 °F 10.9 °F 75% 29.97 in 7.0 mi WSW 8.1 mph - N/A Snow Light Snow
9:15 PM 17.2 °F 6.8 °F 10.8 °F 76% 29.98 in 7.0 mi WSW 8.1 mph - N/A Snow Light Snow
9:35 PM 17.1 °F 6.6 °F 10.6 °F 76% 29.98 in 7.0 mi WSW 8.1 mph - N/A Snow Light Snow
9:45 PM 17.6 °F 2.2 °F 10.4 °F 73% 29.98 in 7.0 mi WSW 17.3 mph - N/A Snow Light Snow
9:55 PM 17.1 °F 6.6 °F 10.9 °F 77% 29.98 in 5.0 mi WSW 8.1 mph - N/A Snow Light Snow
10:15 PM 17.1 °F 6.6 °F 10.4 °F 75% 29.98 in 7.0 mi WSW 8.1 mph - N/A Snow Light Snow
10:35 PM 17.2 °F 3.9 °F 10.8 °F 76% 29.97 in 7.0 mi WSW 12.7 mph - N/A Snow Light Snow
10:55 PM 17.2 °F 7.8 °F 10.8 °F 76% 29.97 in 5.0 mi WSW 6.9 mph - N/A Snow Light Snow
11:15 PM 16.9 °F 6.4 °F 10.6 °F 76% 29.96 in 4.0 mi WSW 8.1 mph - N/A Snow Light Snow
11:35 PM 16.7 °F 6.2 °F 10.4 °F 76% 29.96 in 5.0 mi WSW 8.1 mph - N/A Snow Light Snow
11:55 PM 16.7 °F 7.2 °F 10.4 °F 76% 29.95 in 7.0 mi WSW 6.9 mph - N/A Snow Light Snow